TRANSIT 18 DEB, 42668

Orbit data source: Space-Track

TRANSIT 18 DEB, 42668 is space debris in LEO originally from a launch on Sat, 02 Mar 1968 UTC launched from the Air Force Western Test Range (AFWTR). Debris objects in space refer to the collection of defunct objects orbiting the Earth. Examples of debris include non-operational satellites, rocket bodies, and fragments generated from explosions, collisions, or faulty payload assembly.

Loading next visibility...
TRANSIT 18 DEB details
Identifier
42668, 1968-012G
Orbit
LEO
Last TLE update20 hours ago
Origin
Flag of USUSN NAVAIR (US)
ManufacturerUnknown
MissionSpacecraft
Bus & MotorUnknown
MassUnknown
Launch date (UTC)
1968-03-02 (57 years ago)
Launch vehicleUnknown
Launch site
Air Force Western Test Range (AFWTR)
Object type
Payload
Rocket body
Debris
Shape & HBRUnknown
Radar Cross SectionSmall (<0.1 m²)

Expand to show TLE details & history

TLE from 20 hours ago
0 TRANSIT 18 DEB
1 42668U 68012G   24355.78455476  .00760346  00000-0  57536-1 0  9991
2 42668  89.9462 267.5032 0013055  91.7696 268.5034 14.99802013558927
Epoch: 2024-12-20T18:49Z
Definitive object data (Epoch: 2024-12-20T18:49:45.531Z)
Latitude
Longitude-104.78161°
Altitude570.925 km
Speed7.575 km/s
True Right ascension17h 50m 00s
True Declination0° 00' 00"
Sunlit
Object was in daylight at TLE epoch
Visualization TLE readout
Latitude-20.31214°
Longitude75.23239°
Altitude574.986 km
Speed7.57 km/s
Apparent Right ascension04h 11m 57s
Apparent Declination-32° 51' 43"
Sunlit
Object is in full shadow
Visualization observer readout
Local Sidereal Time13:57:42
Azimuth274.06° WNW
Elevation-62.256°
Doppler factor1
Orbital elements
Apogee altitude573.406 km
Perigee altitude555.279 km
Semi-major axis6,942.479 km
Eccentricity0.0013055
Inclination89.9462°
RAAN267.5032°
Arg. of periapsis91.7696°
True anomaly268.35386°
Mean anomaly268.5034°
Eccentric anomaly268.42863°
Mean motion3.75207 °/min
BSTAR0.057536
Orbital period95.95 mins
Loading maneuver chart data...
Loading historical data...
Loading historical data...
Loading historical data...
Loading historical data...
Loading historical data...
Loading historical data...
Loading historical data...

TRANSIT 18 DEB Visibility forecast

Observer location: undefined°, undefined

Span
Click to sort rows by Start time (UTC) header in descending order
Start Az.
Max El. time (UTC)
Max El. Az.
Max El.
End time (UTC)
End Az.
7 mins2024-12-21 18:57:30.190Z190.415° SSW2024-12-21 19:00:30.190Z244.604° WSW40.241°2024-12-21 19:04:30.190Z349.519° N
6 mins2024-12-22 06:36:30.190Z7.584° NNE2024-12-22 06:39:30.190Z135.371° SSE43.493°2024-12-22 06:42:30.190Z177.358° S
|